Weather WX

World > North America > United States > Ohio

Brunswick, Ohio Regional Weather

Lat: 41.25N, Lon: 81.82W
Wx Zone: OHZ020
Warning FLW WEATHER ALERT - (More Info. Click Here) Warning
Feedback

Brunswick, OH Regional Weather

Expires:201907180300;;228554
ASUS41 KCLE 180212
RWRCLE
OHIO REGIONAL WEATHER ROUNDUP
NATIONAL WEATHER SERVICE WILMINGTON, OH
1000 PM EDT WED JUL 17 2019

NOTE: "FAIR" INDICATES FEW OR NO CLOUDS BELOW 12,000 FEET WITH NO
SIGNIFICANT WEATHER AND/OR OBSTRUCTIONS TO VISIBILITY.


OHZ009>014-019>023-028>033-038-089-180300-
   NORTHEAST OHIO
  
CITY           SKY/WX    TMP DP  RH WIND       PRES   REMARKS
CLE-HOPKINS    FAIR      78  72  81 N5        29.95R                  
CLE-LAKEFRONT  MOCLDY    77  72  84 W5        29.92R                  
CUY CO. ARPT   MOCLDY    73  70  88 CALM      29.93R                  
LORAIN-ELYRIA  FAIR      76  68  76 CALM      29.94R                  
ASHTABULA      MOCLDY    73  72  96 CALM      29.94R                  
AKRON-CANTON   FAIR      75  69  81 N3        29.94R                  
WOOSTER        FAIR      74  71  91 N6        29.95R                  
MANSFIELD      FAIR      76  72  87 N5        29.96R                  
YOUNGSTOWN     FAIR      73  70  90 NW3       29.93R                  
$$
 

SKY/WX - Weather  TMP - Temperature  DP - Dew Point  RH - Relative Humidity
WIND - Wind Direction/Speed PRES - Barometric Pressure VSB - Visibility
WCI - Wind Chill Index E13G22 Wind - East Wind 13 mph/Gusts of 22 mph